Location: Bakhuizen
(52.8696°N, 5.4575°E)
Time: 04:41:37
(UTC+00:00)

Spot 4 - Pass Details

Date: 11 May 2021
Orbit: 703 x 724 km, 98.3° (Epoch: 14 June)

Event Time Altitude Azimuth Distance (km) Brightness Sun altitude
Exits shadow 21:55:19 24° 132° (SE) 1,487 5.0 -15.8°
Maximum altitude 21:58:01 50° 67° (ENE) 921 4.4 -16.0°
Drops below altitude 10° 22:02:44 10° 353° (N) 2,223 7.6 -16.3°
Sets 22:05:03 0° 349° (NNW) 3,146 8.8 -16.4°
